Weather History for KCKC - June, 2012

Change the Weather History Date:

Wednesday, June 6, 2012

  Actual Average Record
Temperature  
Mean Temperature 55 °F -  
Max Temperature 68 °F 63 °F 77 °F (2014)
Min Temperature 42 °F 43 °F 32 °F (2015)
Degree Days  
Heating Degree Days 10    
Growing Degree Days 5 (Base 50)    
Moisture  
Dew Point 47 °F    
Average Humidity 69    
Maximum Humidity 93    
Minimum Humidity 55    
Precipitation  
Precipitation 0.00 in - - ()
Sea Level Pressure  
Sea Level Pressure 30.12 in    
Wind  
Wind Speed 4 mph (ESE)    
Max Wind Speed 8 mph    
Max Gust Speed -    
Visibility 10 miles    
Events      
Averages and records for this station are not official NWS values.
T = Trace of Precipitation, MM = Missing Value Source: NWS Daily Summary

Daily Weather History Graph

Daily Weather History Graph

Search for Another Location

Airport or City:

Trip Planner

Search our weather history database for the weather conditions in past years. The results will help you decide how hot, cold, wet, or windy it might be!

Date:

Astronomy

Jun. 06, 2012 Rise Set
Actual Time 5:04 AM CDT 8:57 PM CDT
Civil Twilight 4:23 AM CDT 9:37 PM CDT
Nautical Twilight 3:28 AM CDT 10:32 PM CDT
Astronomical Twilight 2:04 AM CDT 11:58 PM CDT
Moon 11:00 PM CDT 7:30 AM CDT
Length of Visible Light 17h 13m
Length of Day
15h 52m
Waning Gibbous, 93% of the Moon is Illuminated
Jun 6
Waning Gibbous
Jun 11
Last Quarter
Jun 19
New
Jun 26
First Quarter
Jul 3
Full

Hourly Weather History & Observations

Time (CDT) Temp. Windchill Dew Point Humidity Pressure Visibility Wind Dir Wind Speed Gust Speed Precip Events Conditions
12:13 AM 51.8 °F - 41.0 °F 67% 30.10 in 10.0 mi NNE 3.5 mph - N/A   Clear
12:34 AM 48.2 °F - 42.8 °F 82% 30.11 in 10.0 mi North 3.5 mph - N/A   Clear
12:53 AM 46.4 °F 43.5 °F 41.0 °F 81% 30.10 in 10.0 mi NNE 5.8 mph - N/A   Clear
1:34 AM 46.4 °F 43.5 °F 39.2 °F 76% 30.10 in 10.0 mi NNE 5.8 mph - N/A   Clear
2:13 AM 44.6 °F 42.2 °F 39.2 °F 81% 30.10 in 10.0 mi North 4.6 mph - N/A   Clear
2:34 AM 46.4 °F 44.3 °F 39.2 °F 76% 30.10 in 10.0 mi North 4.6 mph - N/A   Clear
2:54 AM 46.4 °F 44.3 °F 39.2 °F 76% 30.10 in 10.0 mi NNE 4.6 mph - N/A   Clear
3:13 AM 44.6 °F 43.1 °F 39.2 °F 81% 30.09 in 10.0 mi North 3.5 mph - N/A   Clear
3:34 AM 42.8 °F 41.1 °F 37.4 °F 81% 30.09 in 10.0 mi NNE 3.5 mph - N/A   Clear
3:53 AM 42.8 °F 41.1 °F 37.4 °F 81% 30.09 in 10.0 mi NE 3.5 mph - N/A   Clear
4:13 AM 44.6 °F 42.2 °F 39.2 °F 81% 30.10 in 10.0 mi NNE 4.6 mph - N/A   Clear
4:33 AM 44.6 °F 40.7 °F 37.4 °F 76% 30.10 in 10.0 mi NNE 6.9 mph - N/A   Clear
4:54 AM 42.8 °F 40.1 °F 37.4 °F 81% 30.10 in 10.0 mi North 4.6 mph - N/A   Clear
5:13 AM 44.6 °F 41.4 °F 37.4 °F 76% 30.10 in 10.0 mi NNE 5.8 mph - N/A   Clear
5:34 AM 44.6 °F - 39.2 °F 81% 30.11 in 10.0 mi Calm Calm - N/A   Clear
5:53 AM 46.4 °F - 39.2 °F 76% 30.12 in 10.0 mi Calm Calm - N/A   Clear
6:13 AM 48.2 °F - 39.2 °F 71% 30.12 in 10.0 mi NE 6.9 mph - N/A   Clear
6:34 AM 51.8 °F - 41.0 °F 67% 30.12 in 10.0 mi NNE 5.8 mph - N/A   Clear
6:54 AM 51.8 °F - 42.8 °F 71% 30.12 in 10.0 mi NNE 5.8 mph - N/A   Clear
7:13 AM 55.4 °F - 42.8 °F 63% 30.12 in 10.0 mi NNE 4.6 mph - N/A   Clear
7:34 AM 57.2 °F - 42.8 °F 59% 30.12 in 10.0 mi NE 4.6 mph - N/A   Clear
7:54 AM 59.0 °F - 44.6 °F 59% 30.12 in 10.0 mi ENE 5.8 mph - N/A   Clear
8:13 AM 60.8 °F - 44.6 °F 55% 30.13 in 10.0 mi Calm Calm - N/A   Clear
8:34 AM 60.8 °F - 46.4 °F 59% 30.13 in 10.0 mi ESE 3.5 mph - N/A   Clear
8:53 AM 60.8 °F - 46.4 °F 59% 30.13 in 10.0 mi ENE 5.8 mph - N/A   Scattered Clouds
9:14 AM 60.8 °F - 48.2 °F 63% 30.13 in 10.0 mi East 4.6 mph - N/A   Mostly Cloudy
9:34 AM 62.6 °F - 48.2 °F 59% 30.13 in 10.0 mi ESE 3.5 mph - N/A   Scattered Clouds
9:54 AM 64.4 °F - 50.0 °F 59% 30.12 in 10.0 mi ESE 4.6 mph - N/A   Scattered Clouds
10:13 AM 64.4 °F - 50.0 °F 59% 30.13 in 10.0 mi ESE 5.8 mph - N/A   Clear
10:33 AM 64.4 °F - 51.8 °F 64% 30.13 in 10.0 mi SE 5.8 mph - N/A   Clear
10:54 AM 64.4 °F - 51.8 °F 64% 30.13 in 10.0 mi ESE 5.8 mph - N/A   Clear
11:13 AM 64.4 °F - 51.8 °F 64% 30.13 in 10.0 mi SSE 5.8 mph - N/A   Clear
11:33 AM 64.4 °F - 50.0 °F 59% 30.13 in 10.0 mi SE 8.1 mph - N/A   Clear
11:54 AM 64.4 °F - 51.8 °F 64% 30.13 in 10.0 mi SE 6.9 mph - N/A   Clear
12:13 PM 64.4 °F - 51.8 °F 64% 30.13 in 10.0 mi SE 5.8 mph - N/A   Clear
12:33 PM 64.4 °F - 51.8 °F 64% 30.12 in 10.0 mi SSE 6.9 mph - N/A   Clear
12:54 PM 64.4 °F - 51.8 °F 64% 30.12 in 10.0 mi SSE 6.9 mph - N/A   Clear
1:13 PM 64.4 °F - 51.8 °F 64% 30.13 in 10.0 mi SE 6.9 mph - N/A   Clear
1:34 PM 64.4 °F - 51.8 °F 64% 30.12 in 10.0 mi SSE 8.1 mph - N/A   Clear
1:54 PM 64.4 °F - 51.8 °F 64% 30.12 in 10.0 mi SE 5.8 mph - N/A   Clear
2:13 PM 66.2 °F - 51.8 °F 60% 30.12 in 10.0 mi SSE 6.9 mph - N/A   Scattered Clouds
2:33 PM 66.2 °F - 51.8 °F 60% 30.12 in 10.0 mi SSE 5.8 mph - N/A   Scattered Clouds
2:53 PM 64.4 °F - 51.8 °F 64% 30.12 in 10.0 mi SSE 3.5 mph - N/A   Scattered Clouds
3:14 PM 66.2 °F - 51.8 °F 60% 30.11 in 10.0 mi SSE 4.6 mph - N/A   Clear
3:34 PM 68.0 °F - 51.8 °F 56% 30.11 in 10.0 mi SE 6.9 mph - N/A   Clear
3:54 PM 68.0 °F - 51.8 °F 56% 30.11 in 10.0 mi South 6.9 mph - N/A   Clear
4:13 PM 68.0 °F - 51.8 °F 56% 30.10 in 10.0 mi SSE 8.1 mph - N/A   Clear
4:33 PM 68.0 °F - 51.8 °F 56% 30.10 in 10.0 mi SSE 5.8 mph - N/A   Clear
5:14 PM 66.2 °F - 51.8 °F 60% 30.10 in 10.0 mi SSE 6.9 mph - N/A   Clear
5:54 PM 66.2 °F - 51.8 °F 60% 30.10 in 10.0 mi SSE 6.9 mph - N/A   Clear
6:14 PM 66.2 °F - 51.8 °F 60% 30.10 in 10.0 mi South 5.8 mph - N/A   Clear
6:33 PM 64.4 °F - 51.8 °F 64% 30.10 in 10.0 mi South 5.8 mph - N/A   Clear
6:54 PM 64.4 °F - 50.0 °F 59% 30.11 in 10.0 mi SSE 4.6 mph - N/A   Clear
7:13 PM 62.6 °F - 50.0 °F 63% 30.11 in 10.0 mi SSE 4.6 mph - N/A   Clear
7:33 PM 62.6 °F - 50.0 °F 63% 30.12 in 10.0 mi South 3.5 mph - N/A   Clear
7:54 PM 60.8 °F - 50.0 °F 68% 30.12 in 10.0 mi Calm Calm - N/A   Clear
8:13 PM 60.8 °F - 50.0 °F 68% 30.12 in 10.0 mi Calm Calm - N/A   Clear
8:33 PM 57.2 °F - 51.8 °F 82% 30.12 in 10.0 mi Calm Calm - N/A   Clear
8:53 PM 55.4 °F - 50.0 °F 82% 30.12 in 10.0 mi Calm Calm - N/A   Clear
9:33 PM 53.6 °F - 48.2 °F 82% 30.13 in 10.0 mi Calm Calm - N/A   Clear
9:53 PM 53.6 °F - 48.2 °F 82% 30.14 in 10.0 mi Calm Calm - N/A   Clear
10:14 PM 51.8 °F - 48.2 °F 88% 30.14 in 10.0 mi Calm Calm - N/A   Clear
10:34 PM 51.8 °F - 48.2 °F 88% 30.14 in 10.0 mi Calm Calm - N/A   Clear
10:53 PM 51.8 °F - 48.2 °F 88% 30.14 in 10.0 mi Calm Calm - N/A   Clear
11:54 PM 48.2 °F - 46.4 °F 93% 30.14 in 5.0 mi Calm Calm - N/A   Clear